Find Zi Yuan 1-02

NORAD ID: 28057 Int'l Des: 2003-049 Owner: ZZWYZ/INPE Country: CN operational
LEOCIRCULARRETROGRADESSO

リアルタイム位置

3D地球を読み込み中...

Zi Yuan 1-02について

説明を読み込み中...

次回通過

Passes for default location (London). Set your location on the main map for personalized predictions.

高度履歴

Loading altitude history...

軌道要素

1 28057U 03049A 26104.88605809 .00000108 00000-0 52273-4 0 9997
2 28057 98.7506 75.6868 0001206 44.4462 315.6820 14.36720115178092
Epoch: Apr 14, 2026 • Age: 10 hours

現在のステータス

高度 772.4 km
速度 7.47 km/s
衛星直下点 30.54°N, 115.91°E
打ち上げ日 Oct 21, 2003
運用期間 22.4 years
タイプ other

技術仕様

分類 Payload
質量 1450.00 kg
乾燥質量 1400.00 kg
総質量 1450.00 kg
長さ 1.80 m
直径 2.00 m
スパン 9.00 m
形状 Box + Pan
製造者 CAST/INPE
バスタイプ ZY
フェーズステータス In Orbit
所有者/国 ZZWYZ/INPE/CN

Most Searched